Total_Precipitation_Accumulation
1.27 1.34 1.38 1.42 1.51 1.52 1.57 1.68 1.86 1.82 1.60 1.38 1.26 1.28 1.35 1.42 1.62 1.45 1.38 1.36 1.21 1.13 1.11 1.12 1.14 1.17 1.26 1.38 1.47 1.54 1.56 1.58 1.62 1.72 1.85 2.00 2.18 2.31
1.13 1.16 1.19 1.24 1.42 1.53 1.61 1.71 1.85 1.90 1.79 1.43 1.26 1.22 1.29 1.33 1.57 1.44 1.43 1.49 1.28 1.10 1.03 1.12 1.17 1.15 1.16 1.18 1.19 1.24 1.32 1.36 1.39 1.49 1.62 1.73 1.86 2.04
1.01 1.03 1.07 1.14 1.24 1.32 1.45 1.57 1.76 1.93 1.94 1.62 1.35 1.25 1.31 1.39 1.44 1.39 1.31 1.22 1.14 1.16 1.02 1.04 1.25 1.42 1.32 1.17 1.09 1.08 1.12 1.17 1.22 1.30 1.45 1.61 1.70 1.79
0.91 0.95 0.90 0.93 1.05 1.15 1.27 1.37 1.52 1.67 1.80 1.72 1.46 1.34 1.32 1.41 1.49 1.50 1.31 1.15 1.06 1.12 1.02 0.98 1.14 1.51 1.58 1.35 1.23 1.13 1.05 1.04 1.07 1.14 1.26 1.38 1.51 1.66
0.78 0.87 0.89 0.98 1.05 1.14 1.26 1.31 1.39 1.44 1.64 1.65 1.49 1.42 1.38 1.41 1.55 1.49 1.28 1.24 0.96 0.92 0.93 0.95 1.09 1.67 2.02 1.77 1.48 1.35 1.17 1.04 0.96 1.00 1.10 1.20 1.24 1.31
0.68 0.72 0.79 0.93 1.05 1.18 1.24 1.31 1.44 1.54 1.62 1.68 1.61 1.59 1.56 1.54 1.60 1.64 1.46 1.30 1.08 0.81 0.88 0.95 1.13 1.61 2.21 2.36 1.94 1.66 1.43 1.26 1.10 0.99 0.98 1.00 0.98 0.96
0.71 0.70 0.67 0.74 0.87 0.97 1.03 1.23 1.49 1.67 1.67 1.70 1.66 1.65 1.65 1.71 1.63 1.55 1.51 1.36 1.15 0.95 0.97 0.94 1.17 1.80 2.41 2.72 2.52 1.94 1.52 1.32 1.17 1.05 0.99 0.94 0.90 0.85
0.76 0.74 0.64 0.62 0.65 0.71 0.79 0.93 1.17 1.44 1.60 1.66 1.65 1.63 1.60 1.66 1.64 1.56 1.55 1.53 1.38 1.05 1.02 1.08 1.36 2.17 2.74 2.97 2.87 2.14 1.52 1.29 1.19 1.09 1.02 0.95 0.88 0.83
0.77 0.79 0.66 0.57 0.66 0.74 0.75 0.75 0.84 1.04 1.35 1.59 1.64 1.52 1.60 1.68 1.73 1.73 1.63 1.62 1.54 1.22 1.16 1.29 1.57 2.18 2.63 3.01 2.91 2.21 1.68 1.39 1.27 1.19 1.10 1.03 0.94 0.83
0.67 0.72 0.77 0.78 0.68 0.69 0.74 0.88 1.03 1.11 1.19 1.26 1.45 1.48 1.50 1.52 1.49 1.54 1.57 1.58 1.45 1.21 1.23 1.48 1.66 2.06 2.40 2.86 2.79 2.15 1.70 1.47 1.35 1.25 1.13 1.01 0.93 0.86
0.56 0.55 0.58 0.66 0.64 0.69 0.85 1.09 1.29 1.45 1.32 1.28 1.37 1.53 1.53 1.37 1.21 1.29 1.54 1.63 1.47 1.20 1.15 1.40 1.61 1.81 2.13 2.47 2.38 2.05 1.70 1.50 1.35 1.21 1.11 1.00 0.90 0.87
0.60 0.58 0.62 0.62 0.64 0.79 0.96 1.26 1.49 1.60 1.43 1.36 1.49 1.63 1.56 1.44 1.37 1.41 1.60 1.60 1.47 1.40 1.20 1.29 1.44 1.57 1.96 2.10 1.93 1.71 1.61 1.58 1.44 1.29 1.15 1.00 0.88 0.80
0.59 0.67 0.73 0.74 0.70 0.80 0.99 1.22 1.45 1.51 1.45 1.41 1.44 1.49 1.53 1.55 1.45 1.42 1.45 1.43 1.43 1.40 1.16 1.28 1.49 1.58 1.81 1.94 1.83 1.68 1.51 1.46 1.44 1.50 1.44 1.19 0.95 0.83
0.66 0.70 0.73 0.75 0.75 0.88 1.02 1.24 1.46 1.59 1.49 1.35 1.26 1.23 1.25 1.31 1.29 1.17 1.13 1.12 1.17 1.22 1.13 1.24 1.55 1.71 1.70 1.67 1.78 1.70 1.61 1.58 1.50 1.53 1.58 1.45 1.21 1.10
0.58 0.74 0.75 0.71 0.85 1.12 1.30 1.44 1.60 1.68 1.52 1.29 1.20 1.12 1.07 1.05 1.03 1.05 1.03 0.97 0.93 0.91 0.86 0.99 1.31 1.51 1.55 1.56 1.63 1.62 1.73 1.90 1.76 1.68 1.60 1.47 1.33 1.19
0.48 0.68 0.83 0.89 1.04 1.32 1.54 1.65 1.71 1.65 1.43 1.24 1.13 1.05 0.97 0.96 0.98 0.97 1.01 0.98 0.98 0.98 0.89 0.90 1.05 1.26 1.40 1.40 1.48 1.57 1.66 2.05 2.05 1.80 1.66 1.60 1.47 1.32
0.44 0.64 0.85 0.97 1.16 1.38 1.52 1.54 1.50 1.42 1.34 1.18 1.06 1.01 0.98 0.97 0.97 0.95 0.97 0.93 0.95 0.94 0.95 0.94 0.97 1.05 1.12 1.19 1.35 1.47 1.62 1.83 1.88 1.68 1.57 1.63 1.60 1.42
0.48 0.71 0.92 1.04 1.19 1.31 1.41 1.38 1.31 1.24 1.18 1.11 1.05 0.99 0.96 0.95 0.97 0.93 0.88 0.87 0.91 0.87 0.82 0.81 0.80 0.84 0.94 1.09 1.25 1.34 1.40 1.59 1.63 1.51 1.34 1.40 1.58 1.51
0.54 0.76 0.94 1.09 1.18 1.21 1.25 1.23 1.17 1.12 1.04 0.99 0.96 0.92 0.89 0.89 0.89 0.83 0.77 0.77 0.76 0.73 0.67 0.64 0.61 0.63 0.77 1.11 1.28 1.30 1.26 1.31 1.38 1.35 1.26 1.25 1.44 1.53
0.64 0.80 0.92 0.98 1.05 1.10 1.10 1.09 1.06 0.99 0.92 0.90 0.93 0.91 0.84 0.78 0.73 0.70 0.68 0.66 0.64 0.59 0.56 0.54 0.53 0.58 0.70 0.94 1.29 1.39 1.20 1.04 1.06 1.14 1.13 1.16 1.29 1.35
0.67 0.76 0.82 0.86 0.91 0.95 0.95 0.93 0.92 0.89 0.84 0.81 0.82 0.83 0.82 0.73 0.64 0.58 0.54 0.49 0.48 0.50 0.53 0.56 0.55 0.47 0.48 0.60 0.89 1.12 1.13 1.10 1.02 1.00 0.95 1.00 1.02 0.94
0.63 0.70 0.71 0.71 0.72 0.76 0.73 0.69 0.71 0.72 0.71 0.73 0.72 0.72 0.72 0.66 0.58 0.52 0.47 0.45 0.45 0.43 0.43 0.45 0.41 0.39 0.44 0.57 0.78 0.95 0.97 0.90 0.86 0.82 0.78 0.76 0.74 0.83
0.53 0.56 0.60 0.60 0.57 0.56 0.58 0.59 0.61 0.66 0.67 0.67 0.65 0.63 0.60 0.54 0.47 0.42 0.40 0.38 0.37 0.36 0.38 0.43 0.42 0.42 0.45 0.53 0.66 0.75 0.73 0.67 0.64 0.65 0.71 0.75 0.71 0.77